When you browse on this site, cookies collect data to enhance your experience and personalize the content and advertising you see.
Visit our Privacy Policy to learn more. By continuing to use the site, you agree to this use of cookies and data.
  • In Romania
  • List of Countries
  • For 7 days
  • Water Temperature
  • Satellite Maps
  • Weather Map
  • Weather Widgets
  • user-avatar
    Login

    Hourly Weather Houston

    Today, 10 December, Monday

    Time Temperature Precipitation Wind Pressure Humidity
    00:00 +9°C° 0 mm 3 mps 769 mmHg 77%
    01:00 +8°C° 0 mm 3 mps 769 mmHg 77%
    02:00 +8°C° 0 mm 3 mps 769 mmHg 77%
    03:00 +7°C° 0 mm 3 mps 769 mmHg 77%
    04:00 +7°C° 0 mm 3 mps 769 mmHg 75%
    05:00 +5°C° 0 mm 3 mps 769 mmHg 73%
    06:00 +5°C° 0 mm 3 mps 769 mmHg 71%
    07:00 +5°C° 0 mm 3 mps 770 mmHg 68%
    08:00 +7°C° 0 mm 3 mps 770 mmHg 65%
    09:00 +8°C° 0 mm 3 mps 770 mmHg 62%
    10:00 +9°C° 0 mm 3 mps 770 mmHg 57%
    11:00 +10°C° 0 mm 3 mps 770 mmHg 52%
    12:00 +12°C° 0 mm 3 mps 770 mmHg 46%
    13:00 +12°C° 0 mm 3 mps 770 mmHg 46%
    14:00 +13°C° 0 mm 3 mps 770 mmHg 46%
    15:00 +14°C° 0 mm 3 mps 769 mmHg 45%
    16:00 +12°C° 0 mm 3 mps 770 mmHg 49%
    17:00 +12°C° 0 mm 2 mps 770 mmHg 52%
    18:00 +10°C° 0 mm 2 mps 770 mmHg 56%
    19:00 +10°C° 0 mm 2 mps 770 mmHg 58%
    20:00 +10°C° 0 mm 1 mps 771 mmHg 60%
    21:00 +10°C° 0 mm 1 mps 771 mmHg 61%
    22:00 +9°C° 0 mm 1 mps 771 mmHg 62%
    23:00 +9°C° 0 mm 1 mps 771 mmHg 63%

    Tomorrow, 11 December, Tuesday

    Time Temperature Precipitation Wind Pressure Humidity
    00:00 +8°C° 0 mm 0 mps 771 mmHg 64%
    01:00 +7°C° 0 mm 0 mps 771 mmHg 65%
    02:00 +8°C° 0 mm 1 mps 771 mmHg 65%
    03:00 +8°C° 0 mm 1 mps 771 mmHg 66%
    04:00 +8°C° 0 mm 1 mps 771 mmHg 66%
    05:00 +8°C° 0 mm 1 mps 771 mmHg 67%
    06:00 +7°C° 0 mm 1 mps 771 mmHg 67%
    07:00 +8°C° 0 mm 1 mps 771 mmHg 66%
    08:00 +9°C° 0 mm 1 mps 771 mmHg 64%
    09:00 +9°C° 0 mm 2 mps 772 mmHg 62%
    10:00 +12°C° 0 mm 2 mps 771 mmHg 57%
    11:00 +14°C° 0 mm 2 mps 771 mmHg 52%
    12:00 +16°C° 0 mm 3 mps 770 mmHg 47%
    13:00 +16°C° 0 mm 3 mps 769 mmHg 48%
    14:00 +17°C° 0 mm 3 mps 769 mmHg 49%
    15:00 +17°C° 0 mm 3 mps 768 mmHg 49%
    16:00 +16°C° 0 mm 3 mps 768 mmHg 54%
    17:00 +14°C° 0 mm 3 mps 767 mmHg 59%
    18:00 +13°C° 0 mm 3 mps 767 mmHg 64%
    19:00 +12°C° 0 mm 3 mps 767 mmHg 65%
    20:00 +12°C° 0 mm 3 mps 767 mmHg 66%
    21:00 +12°C° 0 mm 3 mps 767 mmHg 67%
    22:00 +12°C° 0 mm 3 mps 767 mmHg 68%
    23:00 +12°C° 0 mm 3 mps 766 mmHg 69%

    Day after tomorrow, 12 December, Wednesday

    Time Temperature Precipitation Wind Pressure Humidity
    00:00 +12°C° 0 mm 3 mps 766 mmHg 71%
    01:00 +12°C° 0 mm 3 mps 765 mmHg 73%
    02:00 +13°C° 0 mm 3 mps 765 mmHg 75%
    03:00 +13°C° 0 mm 3 mps 764 mmHg 77%
    04:00 +13°C° 0 mm 3 mps 764 mmHg 78%
    05:00 +13°C° 0 mm 3 mps 764 mmHg 79%
    06:00 +13°C° 0 mm 3 mps 764 mmHg 80%
    07:00 +14°C° 0 mm 3 mps 764 mmHg 80%
    08:00 +16°C° 0 mm 3 mps 764 mmHg 79%
    09:00 +17°C° 0 mm 3 mps 764 mmHg 79%
    10:00 +18°C° 0 mm 4 mps 764 mmHg 78%
    11:00 +19°C° 0 mm 4 mps 763 mmHg 77%
    12:00 +20°C° 0 mm 4 mps 763 mmHg 76%
    13:00 +20°C° 0 mm 4 mps 762 mmHg 77%
    14:00 +20°C° 0 mm 4 mps 761 mmHg 78%
    15:00 +20°C° 0 mm 4 mps 761 mmHg 79%
    16:00 +19°C° 0 mm 4 mps 760 mmHg 81%
    17:00 +19°C° 0 mm 4 mps 760 mmHg 83%
    18:00 +19°C° 0 mm 3 mps 760 mmHg 84%
    19:00 +19°C° 0 mm 4 mps 760 mmHg 85%
    20:00 +19°C° 0 mm 4 mps 760 mmHg 85%
    21:00 +19°C° 0 mm 4 mps 761 mmHg 85%
    22:00 +19°C° 0 mm 4 mps 760 mmHg 86%
    23:00 +19°C° 0 mm 4 mps 760 mmHg 87%

    13 December, Thursday

    Time Temperature Precipitation Wind Pressure Humidity
    00:00 +19°C° 0 mm 4 mps 760 mmHg 87%
    01:00 +19°C° 0.7 mm 4 mps 759 mmHg 88%
    02:00 +19°C° 0.7 mm 5 mps 758 mmHg 89%
    03:00 +19°C° 0.7 mm 5 mps 758 mmHg 90%
    04:00 +19°C° 2.6 mm 5 mps 757 mmHg 91%
    05:00 +19°C° 2.6 mm 5 mps 757 mmHg 92%
    06:00 +19°C° 2.6 mm 6 mps 757 mmHg 92%
    07:00 +18°C° 1.3 mm 7 mps 757 mmHg 87%
    08:00 +20°C° 1.3 mm 7 mps 758 mmHg 82%
    09:00 +20°C° 1.3 mm 8 mps 758 mmHg 77%
    10:00 +18°C° 0 mm 9 mps 758 mmHg 67%
    11:00 +17°C° 0 mm 9 mps 759 mmHg 57%
    12:00 +16°C° 0 mm 10 mps 759 mmHg 47%
    13:00 +16°C° 0 mm 10 mps 759 mmHg 47%
    14:00 +14°C° 0 mm 10 mps 759 mmHg 48%
    15:00 +14°C° 0 mm 11 mps 759 mmHg 49%
    16:00 +12°C° 0 mm 10 mps 759 mmHg 50%
    17:00 +11°C° 0 mm 9 mps 760 mmHg 51%
    18:00 +10°C° 0 mm 8 mps 760 mmHg 52%
    19:00 +10°C° 0 mm 8 mps 761 mmHg 50%
    20:00 +9°C° 0 mm 8 mps 761 mmHg 48%
    21:00 +9°C° 0 mm 7 mps 761 mmHg 46%
    22:00 +9°C° 0 mm 8 mps 761 mmHg 44%
    23:00 +9°C° 0 mm 8 mps 761 mmHg 42%

    14 December, Friday

    Time Temperature Precipitation Wind Pressure Humidity
    00:00 +8°C° 0 mm 9 mps 761 mmHg 40%
    01:00 +7°C° 0 mm 9 mps 761 mmHg 40%
    02:00 +7°C° 0 mm 9 mps 761 mmHg 40%
    03:00 +6°C° 0 mm 9 mps 761 mmHg 40%
    04:00 +6°C° 0 mm 9 mps 762 mmHg 40%
    05:00 +5°C° 0 mm 8 mps 762 mmHg 40%
    06:00 +5°C° 0 mm 8 mps 762 mmHg 41%
    07:00 +5°C° 0 mm 8 mps 763 mmHg 41%
    08:00 +6°C° 0 mm 9 mps 763 mmHg 41%
    09:00 +6°C° 0 mm 9 mps 764 mmHg 41%
    10:00 +7°C° 0 mm 9 mps 764 mmHg 40%
    11:00 +8°C° 0 mm 9 mps 764 mmHg 38%
    12:00 +11°C° 0 mm 9 mps 764 mmHg 37%
    13:00 +11°C° 0 mm 8 mps 763 mmHg 37%
    14:00 +12°C° 0 mm 8 mps 763 mmHg 37%
    15:00 +14°C° 0 mm 7 mps 763 mmHg 36%
    16:00 +11°C° 0 mm 6 mps 763 mmHg 40%
    17:00 +10°C° 0 mm 5 mps 763 mmHg 43%
    18:00 +10°C° 0 mm 4 mps 764 mmHg 46%
    19:00 +10°C° 0 mm 4 mps 764 mmHg 47%
    20:00 +8°C° 0 mm 4 mps 765 mmHg 48%
    21:00 +7°C° 0 mm 4 mps 765 mmHg 49%
    22:00 +8°C° 0 mm 3 mps 765 mmHg 50%
    23:00 +8°C° 0 mm 3 mps 765 mmHg 50%

    15 December, Saturday

    Time Temperature Precipitation Wind Pressure Humidity
    00:00 +7°C° 0 mm 3 mps 765 mmHg 51%
    01:00 +7°C° 0 mm 2 mps 765 mmHg 52%
    02:00 +6°C° 0 mm 2 mps 765 mmHg 53%
    03:00 +6°C° 0 mm 2 mps 765 mmHg 55%
    04:00 +6°C° 0 mm 2 mps 765 mmHg 56%
    05:00 +5°C° 0 mm 2 mps 766 mmHg 57%
    06:00 +6°C° 0 mm 1 mps 766 mmHg 58%
    07:00 +7°C° 0 mm 1 mps 766 mmHg 57%
    08:00 +8°C° 0 mm 1 mps 766 mmHg 55%
    09:00 +9°C° 0 mm 1 mps 766 mmHg 54%
    10:00 +10°C° 0 mm 1 mps 765 mmHg 49%
    11:00 +12°C° 0 mm 1 mps 765 mmHg 44%
    12:00 +14°C° 0 mm 1 mps 765 mmHg 39%
    13:00 +15°C° 0 mm 1 mps 765 mmHg 39%
    14:00 +15°C° 0 mm 1 mps 764 mmHg 38%
    15:00 +16°C° 0 mm 1 mps 764 mmHg 37%
    16:00 +15°C° 0 mm 1 mps 764 mmHg 43%
    17:00 +14°C° 0 mm 1 mps 764 mmHg 48%
    18:00 +13°C° 0 mm 2 mps 765 mmHg 54%
    19:00 +12°C° 0 mm 1 mps 765 mmHg 58%
    20:00 +12°C° 0 mm 1 mps 765 mmHg 62%
    21:00 +11°C° 0 mm 1 mps 766 mmHg 66%
    22:00 +11°C° 0 mm 1 mps 766 mmHg 69%
    23:00 +11°C° 0 mm 1 mps 766 mmHg 72%
    Show more